This is the latest recevied weather packets stored in our database for station/object DB2AG-10. If no packets are shown the sender has not sent any weather packets the latest 10 day(s).
| Time | Temp. | Humidity | Pressure | Rain* | Wind** | Luminosity | Snow |
|---|---|---|---|---|---|---|---|
| 1777801640 | 23.89° C | 34% | 1013.9 hPa | - | - | - | - |
| 1777800740 | 23.89° C | 34% | 1013.9 hPa | - | - | - | - |
| 1777799840 | 23.89° C | 34% | 1013.9 hPa | - | - | - | - |
| 1777798940 | 23.33° C | 34% | 1013.8 hPa | - | - | - | - |
| 1777798039 | 23.33° C | 34% | 1013.7 hPa | - | - | - | - |
| 1777797139 | 23.33° C | 34% | 1013.6 hPa | - | - | - | - |
| 1777796239 | 23.33° C | 34% | 1013.8 hPa | - | - | - | - |
| 1777795339 | 22.78° C | 34% | 1013.7 hPa | - | - | - | - |
| 1777794439 | 22.78° C | 35% | 1013.7 hPa | - | - | - | - |
| 1777793538 | 22.22° C | 35% | 1013.5 hPa | - | - | - | - |
| 1777792638 | 22.22° C | 35% | 1013.4 hPa | - | - | - | - |
| 1777791738 | 21.67° C | 35% | 1013.3 hPa | - | - | - | - |
| 1777790838 | 21.67° C | 35% | 1013.3 hPa | - | - | - | - |
| 1777789938 | 21.11° C | 36% | 1013.4 hPa | - | - | - | - |
| 1777789038 | 21.11° C | 37% | 1013.4 hPa | - | - | - | - |
| 1777788138 | 21.11° C | 37% | 1013.4 hPa | - | - | - | - |
| 1777787238 | 20.56° C | 37% | 1013.6 hPa | - | - | - | - |
| 1777786338 | 21.11° C | 37% | 1013.6 hPa | - | - | - | - |
| 1777785437 | 20.56° C | 37% | 1013.8 hPa | - | - | - | - |
| 1777784537 | 20.56° C | 37% | 1013.9 hPa | - | - | - | - |
| 1777783637 | 20° C | 38% | 1014 hPa | - | - | - | - |
| 1777782737 | 20° C | 38% | 1014 hPa | - | - | - | - |
| 1777781837 | 20° C | 38% | 1014.2 hPa | - | - | - | - |
| 1777780937 | 20° C | 38% | 1014.3 hPa | - | - | - | - |
| 1777780037 | 20.56° C | 37% | 1014.4 hPa | - | - | - | - |
* Rain since midnight (hover to see other rain measurements)
** Current wind speed in m/s (hover to see current wind gust speed)